Phoenix Deer Valley, AZ

5:43 PM MST on August 21, 2017 (GMT -0700)
Phoenix-Deer Valley Municipal

Weather History for KDVT - January, 2013

Change the Weather History Date:

Thursday, January 24, 2013

  Actual Average Record
Temperature  
Mean Temperature 60 °F -  
Max Temperature 64 °F 64 °F 75 °F (2003)
Min Temperature 57 °F 44 °F 36 °F (2007)
Degree Days  
Heating Degree Days 4    
Growing Degree Days 10 (Base 50)    
Moisture  
Dew Point 39 °F    
Average Humidity 48    
Maximum Humidity 69    
Minimum Humidity 26    
Precipitation  
Precipitation 0.01 in - - ()
Sea Level Pressure  
Sea Level Pressure 30.13 in    
Wind  
Wind Speed 2 mph (NNE)    
Max Wind Speed 8 mph    
Max Gust Speed -    
Visibility 10 miles    
Events Rain    
Averages and records for this station are not official NWS values.
T = Trace of Precipitation, MM = Missing Value Source: NWS Daily Summary

Daily Weather History Graph

Daily Weather History Graph

Search for Another Location

Airport or City:

Trip Planner

Search our weather history database for the weather conditions in past years. The results will help you decide how hot, cold, wet, or windy it might be!

Date:

Astronomy

Jan. 24, 2013 Rise Set
Actual Time 7:29 AM MST 5:51 PM MST
Civil Twilight 7:02 AM MST 6:18 PM MST
Nautical Twilight 6:32 AM MST 6:48 PM MST
Astronomical Twilight 6:03 AM MST 7:18 PM MST
Moon 3:58 PM MST (1/24) 5:28 AM MST (1/24)
Length of Visible Light 11h 15m
Length of Day
10h 22m
Waxing Gibbous, 95% of the Moon is Illuminated
Jan 24
Waxing Gibbous
Jan 26
Full
Feb 3
Last Quarter
Feb 10
New
Feb 17
First Quarter

Hourly Weather History & Observations

Time (MST) Temp. Dew Point Humidity Pressure Visibility Wind Dir Wind Speed Gust Speed Precip Events Conditions
12:53 AM 62.1 °F 27.0 °F 26% 30.08 in 10.0 mi Calm Calm - N/A   Clear
1:53 AM 62.1 °F 27.0 °F 26% 30.08 in 10.0 mi Calm Calm - N/A   Clear
2:53 AM 62.1 °F 27.0 °F 26% 30.09 in 10.0 mi Calm Calm - N/A   Clear
3:53 AM 62.1 °F 27.0 °F 26% 30.07 in 10.0 mi East 4.6 mph - N/A   Clear
4:53 AM 60.1 °F 28.0 °F 30% 30.08 in 10.0 mi Calm Calm - N/A   Clear
5:53 AM 60.1 °F 28.0 °F 30% 30.09 in 10.0 mi East 5.8 mph - N/A   Clear
6:53 AM 57.0 °F 28.9 °F 34% 30.11 in 10.0 mi West 3.5 mph - N/A   Clear
7:53 AM 60.1 °F 28.0 °F 30% 30.13 in 10.0 mi NE 6.9 mph - N/A   Overcast
8:26 AM 59.0 °F 30.2 °F 34% 30.18 in 10.0 mi Calm Calm - 0.00 in Rain Light Rain
8:53 AM 59.0 °F 39.9 °F 49% 30.14 in 10.0 mi Calm Calm - 0.00 in Rain Light Rain
9:53 AM 59.0 °F 39.9 °F 49% 30.17 in 10.0 mi Calm Calm - 0.00 in Rain Light Rain
10:53 AM 59.0 °F 48.0 °F 67% 30.19 in 10.0 mi Calm Calm - 0.01 in Rain Light Rain
11:53 AM 59.0 °F 48.0 °F 67% 30.20 in 10.0 mi NNW 6.9 mph - 0.00 in Rain Light Rain
12:53 PM 61.0 °F 46.9 °F 60% 30.17 in 10.0 mi NNW 3.5 mph - 0.00 in   Overcast
1:53 PM 62.1 °F 44.1 °F 52% 30.14 in 10.0 mi NNW 8.1 mph - N/A   Overcast
2:53 PM 62.1 °F 46.0 °F 56% 30.15 in 10.0 mi WNW 5.8 mph - N/A   Overcast
3:53 PM 64.9 °F 46.0 °F 50% 30.13 in 10.0 mi NNE 5.8 mph - N/A   Scattered Clouds
4:53 PM 64.0 °F 46.9 °F 54% 30.14 in 10.0 mi North 6.9 mph - N/A   Overcast
5:53 PM 63.0 °F 46.9 °F 56% 30.13 in 10.0 mi NNE 6.9 mph - N/A   Mostly Cloudy
6:53 PM 61.0 °F 48.0 °F 62% 30.14 in 10.0 mi Calm Calm - N/A   Clear
7:53 PM 61.0 °F 45.0 °F 56% 30.16 in 10.0 mi Calm Calm - N/A   Clear
8:53 PM 59.0 °F 46.0 °F 62% 30.16 in 10.0 mi NE 4.6 mph - N/A   Mostly Cloudy
9:53 PM 59.0 °F 48.9 °F 69% 30.16 in 10.0 mi NE 4.6 mph - N/A   Overcast
10:53 PM 60.1 °F 46.9 °F 62% 30.14 in 10.0 mi East 5.8 mph - N/A   Clear
11:53 PM 59.0 °F 46.9 °F 64% 30.14 in 10.0 mi East 3.5 mph - N/A   Clear